Location: Cahas Mountain Overlook
(37.0833°N, 80.1000°W)
Time: 04:26:54
(UTC-05:00)

S-56A Canister/Altair - All Passes

Search period start: 28 January 2022 00:00
Search period end: 07 February 2022 00:00
Orbit: 634 x 2499 km, 38.9° (Epoch: 26 January)

Date Brightness Start Highest point End Pass type
(mag) Time Alt. Az. Time Alt. Az. Time Alt. Az.
28 Jan - 05:46:49 10° SSW 05:50:30 24° SSE 05:54:09 10° E visible
28 Jan - 07:49:15 10° WSW 07:53:42 88° SSE 07:59:03 10° ENE daylight
28 Jan - 09:52:41 10° W 09:57:39 77° N 10:04:42 10° E daylight
28 Jan - 11:55:53 10° W 12:01:51 60° SSW 12:10:52 10° SE daylight
28 Jan - 14:00:22 10° W 14:06:23 24° SSW 14:14:21 10° SSE daylight
29 Jan - 05:14:36 10° SSW 05:18:03 20° SSE 05:21:21 10° E visible
29 Jan - 07:16:49 10° WSW 07:21:14 80° SSE 07:26:13 10° ENE daylight
29 Jan - 09:20:20 10° W 09:25:03 74° N 09:31:30 10° E daylight
29 Jan - 11:23:32 10° WNW 11:29:08 64° SSW 11:37:31 10° ESE daylight
29 Jan - 13:27:42 10° W 13:33:31 26° SSW 13:41:21 10° SSE daylight
30 Jan - 04:42:24 10° S 04:45:36 17° SSE 04:48:33 10° ESE visible
30 Jan - 06:44:20 10° WSW 06:48:46 71° SSE 06:53:29 10° ENE visible
30 Jan - 08:47:56 10° W 08:52:30 72° N 08:58:24 10° E daylight
30 Jan - 10:51:13 10° WNW 10:56:29 69° SSW 11:04:14 10° ESE daylight
30 Jan - 12:55:08 10° W 13:00:43 27° SSW 13:08:20 10° SSE daylight
31 Jan - 04:10:13 10° S 04:13:06 15° SSE 04:15:43 10° ESE visible
31 Jan - 06:11:49 10° WSW 06:16:20 62° SSE 06:20:50 10° ENE visible
31 Jan - 08:15:32 10° W 08:19:58 71° N 08:25:25 10° E daylight
31 Jan - 10:18:52 10° WNW 10:23:53 75° SSW 10:31:01 10° ESE daylight
31 Jan - 12:22:37 10° W 12:27:57 29° SSW 12:35:19 10° SSE daylight
01 Feb - 03:38:08 10° S 03:40:34 13° SSE 03:42:48 10° ESE visible
01 Feb - 05:39:14 10° SW 05:43:54 54° SSE 05:48:14 10° E visible
01 Feb - 07:43:03 10° W 07:47:28 71° N 07:52:32 10° E daylight
01 Feb - 09:46:32 10° WNW 09:51:18 81° SSW 09:57:51 10° ESE daylight
01 Feb - 11:50:07 10° W 11:55:14 31° SSW 12:02:18 10° SSE daylight
02 Feb - 03:06:11 10° SSE 03:08:01 11° SSE 03:09:44 10° SE night (unlit)
02 Feb - 05:06:36 10° SW 05:11:28 47° SSE 05:15:43 10° E visible
02 Feb - 07:10:32 10° W 07:14:58 73° N 07:19:46 10° E daylight
02 Feb - 09:14:10 10° WNW 09:18:47 87° S 09:24:48 10° ESE daylight
02 Feb - 11:17:41 10° W 11:22:35 34° SSW 11:29:18 10° SE daylight
03 Feb - 02:34:46 10° SSE 02:35:25 10° SE 02:36:03 10° SE night (unlit)
03 Feb - 04:33:56 10° SW 04:38:59 42° SSE 04:43:13 10° E visible
03 Feb - 06:37:55 10° W 06:42:30 76° N 06:47:05 10° ENE visible
03 Feb - 08:41:46 10° WNW 08:46:15 87° N 08:51:49 10° ESE daylight
03 Feb - 10:45:16 10° W 10:49:58 37° SSW 10:56:20 10° SE daylight
03 Feb - 12:53:26 10° SW 12:54:03 10° SW 12:54:39 10° SSW daylight
04 Feb - 04:01:12 10° SW 04:06:30 37° SSE 04:10:45 10° E visible
04 Feb - 06:05:15 10° W 06:10:02 81° N 06:14:30 10° ENE visible
04 Feb - 08:09:20 10° WNW 08:13:46 81° N 08:18:56 10° E daylight
04 Feb - 10:12:52 10° W 10:17:24 40° SSW 10:23:25 10° SE daylight
04 Feb - 12:19:28 10° SW 12:21:19 11° SW 12:23:21 10° SSW daylight
05 Feb - 03:28:25 10° SW 03:33:59 34° SSE 03:38:19 10° E visible
05 Feb - 05:32:29 10° WSW 05:37:33 87° N 05:41:59 10° ENE visible
05 Feb - 07:36:50 10° WNW 07:41:17 76° N 07:46:08 10° E daylight
05 Feb - 09:40:27 10° W 09:44:52 44° SSW 09:50:33 10° SE daylight
05 Feb - 11:46:17 10° WSW 11:48:39 12° SSW 11:51:18 10° S daylight
06 Feb - 02:55:36 10° SSW 03:01:26 31° SSE 03:05:52 10° E visible
06 Feb - 04:59:39 10° WSW 05:05:05 87° SSE 05:09:32 10° ENE visible
06 Feb - 07:04:16 10° W 07:08:48 73° N 07:13:25 10° E daylight
06 Feb - 09:08:01 10° W 09:12:23 49° SSW 09:17:44 10° SE daylight
06 Feb - 11:13:20 10° WSW 11:16:01 14° SSW 11:19:04 10° S daylight
